This is the latest recevied weather packets stored in our database for station/object 9W8AKN-L. If no packets are shown the sender has not sent any weather packets the latest 10 day(s).
| Time | Temp. | Humidity | Pressure | Rain* | Wind** | Luminosity | Snow |
|---|---|---|---|---|---|---|---|
| 1777400243 | 28.33° C | 88% | 1008.6 hPa | - | - | - | - |
| 1777399343 | 28.33° C | 90% | 1008.8 hPa | - | - | - | - |
| 1777398443 | 28.33° C | 88% | 1008.9 hPa | - | - | - | - |
| 1777397543 | 28.33° C | 88% | 1008.8 hPa | - | - | - | - |
| 1777396643 | 28.33° C | 88% | 1009.2 hPa | - | - | - | - |
| 1777395743 | 28.33° C | 87% | 1009.2 hPa | - | - | - | - |
| 1777394843 | 28.33° C | 82% | 1009.4 hPa | - | - | - | - |
| 1777393943 | 28.33° C | 83% | 1009.3 hPa | - | - | - | - |
| 1777393043 | 28.33° C | 81% | 1009.4 hPa | - | - | - | - |
| 1777392142 | 28.33° C | 80% | 1009.8 hPa | - | - | - | - |
| 1777391242 | 28.89° C | 77% | 1009.9 hPa | - | - | - | - |
| 1777390342 | 28.89° C | 75% | 1009.8 hPa | - | - | - | - |
| 1777389442 | 28.89° C | 72% | 1009.9 hPa | - | - | - | - |
| 1777388542 | 28.89° C | 69% | 1010.2 hPa | - | - | - | - |
| 1777387642 | 28.89° C | 63% | 1009.9 hPa | - | - | - | - |
| 1777385843 | 28.89° C | 58% | 1009.5 hPa | - | - | - | - |
| 1777384943 | 28.33° C | 57% | 1009.1 hPa | - | - | - | - |
| 1777384043 | 28.33° C | 57% | 1009.1 hPa | - | - | - | - |
| 1777383143 | 28.89° C | 58% | 1009.1 hPa | - | - | - | - |
| 1777382243 | 28.89° C | 59% | 1009.1 hPa | - | - | - | - |
| 1777381343 | 28.89° C | 59% | 1009 hPa | - | - | - | - |
| 1777380442 | 28.89° C | 60% | 1008.6 hPa | - | - | - | - |
| 1777379542 | 28.89° C | 60% | 1008.7 hPa | - | - | - | - |
| 1777378642 | 28.89° C | 59% | 1008.7 hPa | - | - | - | - |
| 1777377742 | 29.44° C | 58% | 1008.4 hPa | - | - | - | - |
* Rain since midnight (hover to see other rain measurements)
** Current wind speed in m/s (hover to see current wind gust speed)